EW5291 Weather Reports


Display with metric or nautical units.
time (UTC)temp
F
wind
direction
speed
MPH
gust
MPH
rain 1hr
in
rain 24hr
in
rain mn
in
humidity
%
barometer
mb
20260508120015 47 190 0.0 1.0 0.00 0.00 0.00 59 1010.9
20260508114509 42 190 0.0 0.0 0.00 0.00 0.00 64 1010.9
20260508113005 39 190 0.0 0.0 0.00 0.00 0.00 81 1010.8
20260508111502 36 190 0.0 0.0 0.00 0.00 0.00 82 1010.8
20260508110135 35 190 0.0 0.0 0.00 0.00 0.00 82 1010.8
20260508104604 35 190 0.0 0.0 0.00 0.00 0.00 81 1010.7
20260508103059 35 190 0.0 0.0 0.00 0.00 0.00 81 1010.5
20260508101558 35 190 0.0 0.0 0.00 0.00 0.00 80 1010.4
20260508100053 35 190 0.0 0.0 0.00 0.00 0.00 80 1010.2
20260508094555 36 190 0.0 0.0 0.00 0.00 0.00 81 1009.9
20260508093058 35 190 0.0 0.0 0.00 0.00 0.00 81 1009.7
20260508091550 35 190 0.0 0.0 0.00 0.00 0.00 81 1009.7
20260508090106 35 190 0.0 0.0 0.00 0.00 0.00 81 1009.7
20260508084548 35 190 0.0 0.0 0.00 0.00 0.00 81 1009.7
20260508083048 34 190 0.0 0.0 0.00 0.00 0.00 81 1009.9
20260508081557 34 190 0.0 0.0 0.00 0.00 0.00 81 1009.8
20260508080046 33 190 0.0 0.0 0.00 0.00 0.00 81 1009.7
20260508074545 33 190 0.0 0.0 0.00 0.02 0.00 82 1009.6
20260508073046 33 190 0.0 0.0 0.00 0.02 0.00 81 1009.5
20260508071544 33 190 0.0 0.0 0.00 0.02 0.00 81 1009.3
20260508070042 32 190 0.0 0.0 0.00 0.02 0.00 81 1009.1
20260508064540 32 190 0.0 0.0 0.00 0.03 0.00 81 1008.7
20260508063038 33 190 0.0 0.0 0.00 0.03 0.00 81 1008.6
20260508061538 33 190 0.0 0.0 0.00 0.03 0.00 81 1008.4
20260508060041 33 190 0.0 0.0 0.00 0.03 0.00 80 1008.4
20260508054540 34 190 0.0 0.0 0.00 0.03 0.00 80 1008.4
20260508053032 34 190 0.0 0.0 0.00 0.03 0.00 80 1008.7
20260508051531 34 190 0.0 0.0 0.00 0.03 0.00 79 1008.9
20260508050035 35 190 0.0 0.0 0.00 0.03 0.00 79 1008.9
20260508044526 35 190 0.0 0.0 0.00 0.03 0.00 78 1008.8
20260508043024 36 190 0.0 0.0 0.00 0.03 0.00 77 1009.0
20260508041531 36 190 0.0 0.0 0.00 0.03 0.00 77 1009.1
20260508040005 37 0 0.0 0.0 0.00 0.00 0.00 77 1008.6
20260508035004 37 0 0.0 0.0 0.00 0.00 0.00 75 1008.6
20260508034503 37 190 0.0 0.0 0.00 0.06 0.03 76 1009.1
20260508034004 38 0 0.0 0.0 0.00 0.00 0.00 76 1008.5
20260508033503 37 0 0.0 0.0 0.00 0.00 0.00 75 1008.4
20260508033008 37 190 0.0 0.0 0.00 0.06 0.03 74 1009.1
20260508033004 38 0 0.0 0.0 0.00 0.00 0.00 74 1008.5
20260508032504 38 0 0.0 0.0 0.00 0.00 0.00 73 1008.5
20260508032004 38 0 0.0 0.0 0.00 0.00 0.00 72 1008.5
20260508031503 38 0 0.0 0.0 0.00 0.00 0.00 71 1008.5
20260508030505 39 0 0.0 0.0 0.00 0.06 0.00 70 1008.6
20260508030003 39 0 0.0 0.0 0.00 0.06 0.00 70 1008.6
20260508025503 39 0 0.0 0.0 0.00 0.06 0.00 71 1008.6
20260508025003 40 0 0.0 0.0 0.00 0.06 0.00 71 1008.6
20260508024504 40 0 0.0 0.0 0.00 0.08 0.00 70 1008.4
20260508024502 39 190 0.0 0.0 0.00 0.12 0.03 70 1009.1
20260508024003 40 0 0.0 0.0 0.00 0.08 0.00 70 1008.4
20260508023004 40 0 0.0 0.0 0.00 0.09 0.00 68 1008.3
20260508023002 40 190 0.0 0.0 0.00 0.12 0.03 68 1008.9
20260508022503 41 0 0.0 0.0 0.00 0.11 0.00 68 1008.4
20260508022004 41 0 0.0 0.0 0.00 0.11 0.00 67 1008.4
20260508021502 41 190 0.0 0.0 0.00 0.12 0.03 66 1009.1
20260508021004 41 0 0.0 0.0 0.00 0.12 0.00 63 1008.4
20260508020503 42 0 0.0 0.0 0.00 0.12 0.00 64 1008.4
20260508020004 42 0 0.0 0.0 0.00 0.12 0.00 62 1008.5
20260508015504 42 0 0.0 0.0 0.00 0.12 0.00 60 1008.5
20260508015003 43 0 0.0 0.0 0.00 0.12 0.00 61 1008.4
20260508014505 43 190 0.0 0.0 0.00 0.15 0.03 62 1009.0
20260508014003 43 0 0.0 0.0 0.00 0.13 0.00 60 1008.5
20260508013004 44 0 0.0 0.0 0.00 0.13 0.00 57 1008.4
20260508013002 43 190 0.0 0.0 0.00 0.15 0.03 57 1009.0
20260508012503 44 0 0.0 0.0 0.00 0.13 0.00 57 1008.3
20260508012004 44 0 0.0 0.0 0.00 0.13 0.00 58 1008.2
20260508011503 44 190 0.0 0.0 0.00 0.15 0.03 55 1008.7
20260508011003 45 0 0.0 0.0 0.00 0.13 0.00 52 1008.0
20260508010503 46 0 0.0 0.0 0.00 0.15 0.00 47 1007.9
20260508010003 46 0 0.0 0.0 0.00 0.15 0.00 47 1007.8
20260508005503 46 0 0.0 0.0 0.00 0.15 0.00 43 1007.8
20260508005003 47 0 0.0 0.0 0.00 0.15 0.00 43 1007.6
20260508004506 47 190 0.0 0.0 0.00 0.15 0.03 42 1008.2
20260508004504 47 0 0.0 0.0 0.00 0.15 0.00 42 1007.6
20260508003503 48 0 0.0 0.0 0.00 0.15 0.00 40 1007.5
20260508003003 49 0 0.0 0.0 0.00 0.15 0.00 39 1007.4
20260508002503 49 0 0.0 0.0 0.00 0.15 0.00 37 1007.4
20260508002004 49 0 0.0 0.0 0.00 0.15 0.00 37 1007.3
20260508001505 49 190 0.0 0.0 0.00 0.15 0.03 37 1007.8
20260508001503 50 0 0.0 0.0 0.00 0.15 0.00 37 1007.2
20260508001003 50 0 0.0 0.0 0.00 0.15 0.00 37 1007.2
20260508000503 50 0 0.0 0.0 0.00 0.15 0.00 36 1007.2
20260508000004 50 190 0.0 0.0 0.00 0.15 0.03 36 1007.8
20260507235003 52 0 0.0 0.0 0.00 0.15 0.00 35 1007.3
20260507234503 52 190 0.0 0.0 0.00 0.15 0.03 35 1007.7
20260507234003 53 191 0.0 1.0 0.00 0.15 0.00 35 1007.0
20260507233503 53 191 0.0 1.0 0.00 0.15 0.00 34 1006.9
20260507233004 53 191 0.0 1.0 0.00 0.15 0.00 33 1006.9
20260507232504 53 0 0.0 0.0 0.00 0.15 0.00 33 1006.8
20260507232003 54 0 0.0 0.0 0.00 0.15 0.00 36 1006.8
20260507231503 54 0 0.0 0.0 0.00 0.15 0.00 33 1006.8
20260507231003 54 0 0.0 0.0 0.00 0.15 0.00 35 1006.9
20260507230503 55 0 0.0 0.0 0.00 0.15 0.00 30 1006.9
20260507230003 55 190 0.0 0.0 0.00 0.17 0.03 27 1007.4
20260507225503 55 191 0.0 1.0 0.00 0.15 0.00 28 1006.9
20260507225004 56 191 0.0 3.0 0.00 0.15 0.00 26 1006.8
20260507224504 56 191 0.0 3.0 0.00 0.15 0.00 29 1006.9
20260507224004 56 0 0.0 0.0 0.00 0.15 0.00 30 1006.8
20260507223005 56 190 0.0 3.0 0.00 0.17 0.03 29 1007.3
20260507222504 56 0 0.0 0.0 0.00 0.15 0.00 28 1006.7
20260507221504 57 0 0.0 0.0 0.00 0.16 0.00 28 1006.6
20260507221502 56 190 0.0 0.0 0.00 0.17 0.03 28 1007.1
20260507220504 57 191 0.0 7.0 0.00 0.16 0.00 31 1006.6
20260507220004 57 0 0.0 0.0 0.00 0.16 0.00 30 1006.5
20260507220002 57 190 0.0 1.0 0.00 0.22 0.03 30 1007.0
20260507215503 58 0 0.0 0.0 0.00 0.17 0.00 27 1006.5
20260507214503 57 190 0.0 2.0 0.00 0.22 0.03 29 1007.0
20260507214004 57 191 0.0 6.0 0.00 0.19 0.00 33 1006.4
20260507213504 57 191 0.0 6.0 0.00 0.19 0.00 30 1006.4
20260507213007 57 190 0.0 1.0 0.00 0.22 0.03 29 1006.8
20260507213004 57 191 0.0 1.0 0.00 0.19 0.00 29 1006.3
20260507212503 57 191 0.0 1.0 0.00 0.20 0.00 28 1006.2
20260507212004 57 0 0.0 0.0 0.00 0.20 0.00 29 1006.2
20260507211504 58 191 0.0 2.0 0.00 0.20 0.00 27 1006.2
20260507211004 58 191 0.0 2.0 0.00 0.20 0.00 29 1006.2
20260507210503 59 191 0.0 4.0 0.00 0.20 0.00 26 1006.2
20260507210007 59 190 0.0 4.0 0.00 0.28 0.03 24 1006.6
20260507210005 60 191 0.0 6.0 0.00 0.20 0.00 24 1006.1
20260507205504 60 191 0.0 6.0 0.00 0.22 0.00 23 1006.1
20260507205003 60 0 0.0 0.0 0.00 0.22 0.00 27 1006.1
20260507204504 59 190 0.0 0.0 0.00 0.28 0.03 26 1006.6
20260507204003 60 191 0.0 7.0 0.00 0.22 0.00 26 1006.0
20260507203504 60 191 0.0 7.0 0.00 0.22 0.00 30 1006.1
20260507203004 60 190 0.0 2.0 0.00 0.22 0.00 27 1006.2
20260507203002 60 190 0.0 2.0 0.00 0.28 0.03 27 1006.7
20260507202503 60 191 0.0 2.0 0.00 0.24 0.00 27 1006.1
20260507201510 59 190 0.0 3.0 0.00 0.28 0.03 30 1006.6
20260507201503 59 191 0.0 5.0 0.00 0.27 0.00 30 1006.1
20260507201003 59 191 0.0 5.0 0.00 0.27 0.00 31 1006.2
20260507200503 60 191 0.0 1.0 0.00 0.28 0.00 30 1006.3
20260507200013 60 190 0.0 2.0 0.00 0.33 0.03 27 1006.8
20260507200003 60 190 0.0 2.0 0.00 0.28 0.00 27 1006.2
20260507195503 61 191 0.0 2.0 0.00 0.28 0.00 27 1006.3
20260507195003 62 0 0.0 0.0 0.00 0.28 0.00 27 1006.4
20260507194503 62 190 0.0 0.0 0.00 0.33 0.03 26 1006.9
20260507194003 63 191 0.0 1.0 0.00 0.29 0.00 27 1006.4
20260507193503 62 191 0.0 11.0 0.00 0.31 0.00 25 1006.5
20260507193009 62 190 0.0 11.0 0.00 0.33 0.03 26 1006.9
20260507192504 62 191 0.0 2.0 0.00 0.32 0.00 26 1006.4
20260507192004 63 191 0.0 2.0 0.00 0.32 0.00 24 1006.3
20260507191506 63 190 0.0 2.0 0.00 0.33 0.03 25 1006.9
20260507191003 63 191 0.0 4.0 0.00 0.32 0.00 25 1006.4
20260507190504 63 191 0.0 4.0 0.00 0.33 0.00 27 1006.5
20260507190004 63 190 0.0 8.0 0.00 0.36 0.03 25 1007.0
20260507185503 63 191 0.0 7.0 0.00 0.33 0.00 28 1006.6
20260507185003 62 191 0.0 6.0 0.00 0.33 0.00 29 1006.6
20260507184503 62 190 0.0 4.0 0.00 0.36 0.03 24 1007.1
20260507183504 64 190 0.0 5.0 0.00 0.34 0.00 26 1006.7
20260507183005 64 190 0.0 5.0 0.00 0.36 0.03 25 1007.1
20260507182504 65 191 0.0 5.0 0.00 0.35 0.00 26 1006.6
20260507182004 65 191 0.0 4.0 0.00 0.35 0.00 30 1006.8
20260507181503 64 191 0.0 4.0 0.00 0.35 0.00 24 1006.9
20260507181003 64 190 0.0 2.0 0.00 0.35 0.00 34 1006.9
20260507180504 64 191 0.0 2.0 0.00 0.36 0.00 25 1007.0
20260507180004 64 190 0.0 4.0 0.00 0.40 0.03 31 1007.7
20260507175503 64 191 0.0 4.0 0.00 0.36 0.00 26 1007.1
20260507175004 64 191 0.0 1.0 0.00 0.36 0.00 29 1007.0
20260507174504 63 0 0.0 0.0 0.00 0.37 0.00 27 1007.1
20260507174003 63 191 0.0 1.0 0.00 0.37 0.00 23 1007.2
20260507173503 64 191 0.0 2.0 0.00 0.38 0.00 24 1007.2
20260507173013 63 190 0.0 2.0 0.00 0.40 0.03 25 1007.8
20260507172503 63 191 0.0 1.0 0.00 0.39 0.00 24 1007.2
20260507172004 63 191 0.0 3.0 0.00 0.39 0.00 30 1007.2
20260507171503 63 191 0.0 3.0 0.00 0.40 0.00 24 1007.2
20260507171003 63 190 0.0 3.0 0.00 0.40 0.00 26 1007.4
20260507170504 63 190 0.0 6.0 0.00 0.40 0.00 24 1007.4
20260507170003 63 190 0.0 6.0 0.00 0.40 0.03 24 1007.8
20260507165504 64 191 0.0 1.0 0.00 0.40 0.00 33 1007.3
20260507165004 63 191 0.0 4.0 0.00 0.40 0.00 25 1007.5
20260507164503 62 190 0.0 4.0 0.00 0.40 0.03 30 1007.9
20260507164003 63 0 0.0 0.0 0.00 0.40 0.00 29 1007.7
20260507163504 63 191 0.0 1.0 0.00 0.40 0.00 30 1007.8
20260507163004 62 190 0.0 2.0 0.00 0.40 0.03 33 1008.4
20260507162503 63 191 0.0 3.0 0.00 0.40 0.00 33 1007.9
20260507162003 62 191 0.0 3.0 0.00 0.40 0.00 29 1008.0
20260507161504 62 191 0.0 2.0 0.00 0.40 0.00 30 1008.0
20260507161502 61 190 0.0 2.0 0.00 0.40 0.03 30 1008.5
20260507160503 61 190 0.0 3.0 0.00 0.40 0.00 34 1008.1
20260507160003 61 190 0.0 4.0 0.00 0.40 0.03 30 1008.7
20260507155503 61 191 0.0 4.0 0.00 0.40 0.00 33 1008.2
20260507155004 61 191 0.0 2.0 0.00 0.40 0.00 35 1008.2
20260507154503 61 190 0.0 2.0 0.00 0.40 0.00 33 1008.2
20260507154003 61 191 0.0 2.0 0.00 0.40 0.00 31 1008.2
20260507153504 61 191 0.0 2.0 0.00 0.40 0.00 30 1008.4
20260507153009 61 190 0.0 2.0 0.00 0.40 0.03 37 1008.9
20260507152503 61 191 0.0 2.0 0.00 0.40 0.00 28 1008.3
20260507151505 59 190 0.0 6.0 0.00 0.40 0.03 32 1008.8
20260507151503 60 191 0.0 6.0 0.00 0.40 0.00 32 1008.3
20260507151003 60 191 0.0 6.0 0.00 0.40 0.00 31 1008.3
20260507150503 60 190 0.0 6.0 0.00 0.40 0.00 32 1008.4
20260507150002 60 190 0.0 6.0 0.00 0.40 0.03 31 1009.1
20260507145503 60 191 0.0 5.0 0.00 0.40 0.00 39 1008.6
20260507145004 60 191 0.0 5.0 0.00 0.40 0.00 38 1008.6
20260507144503 60 191 0.0 3.0 0.00 0.40 0.00 34 1008.6
20260507144003 59 191 0.0 3.0 0.00 0.40 0.00 37 1008.7
20260507143504 59 191 0.0 2.0 0.00 0.40 0.00 33 1008.8
20260507143004 59 191 0.0 3.0 0.00 0.40 0.00 41 1008.6
20260507143002 58 190 0.0 3.0 0.00 0.40 0.03 41 1009.1
20260507142504 58 190 0.0 3.0 0.00 0.40 0.00 40 1008.5
20260507142003 58 191 0.0 6.0 0.00 0.40 0.00 40 1008.6
20260507141504 57 190 0.0 6.0 0.00 0.40 0.03 40 1009.0
20260507141003 58 191 0.0 1.0 0.00 0.40 0.00 34 1008.6
20260507140503 57 191 0.0 1.0 0.00 0.40 0.00 42 1008.7
20260507140003 56 190 0.0 1.0 0.00 0.40 0.03 41 1009.1
20260507135504 57 191 0.0 2.0 0.00 0.40 0.00 46 1008.6
20260507135003 56 191 0.0 5.0 0.00 0.40 0.00 45 1008.6
20260507134503 56 190 0.0 5.0 0.00 0.40 0.03 42 1009.1
20260507133504 56 191 0.0 1.0 0.00 0.40 0.00 43 1008.5
20260507133007 55 190 0.0 1.0 0.00 0.40 0.03 46 1008.9
20260507133003 56 191 0.0 1.0 0.00 0.40 0.00 46 1008.5
20260507132503 56 0 0.0 0.0 0.00 0.40 0.00 51 1008.5
20260507131503 55 190 0.0 0.0 0.00 0.40 0.03 48 1008.9
20260507130503 54 0 0.0 0.0 0.00 0.40 0.00 50 1008.4
20260507130005 54 190 0.0 0.0 0.00 0.40 0.03 58 1009.0
20260507125504 54 0 0.0 0.0 0.00 0.40 0.00 54 1008.5
20260507125003 54 191 0.0 2.0 0.00 0.40 0.00 59 1008.5
20260507124503 53 190 0.0 2.0 0.00 0.40 0.03 52 1009.0
20260507124004 53 0 0.0 0.0 0.00 0.40 0.00 62 1008.6
20260507123503 52 0 0.0 0.0 0.00 0.40 0.00 67 1008.6
20260507123003 52 191 0.0 2.0 0.00 0.40 0.00 68 1008.5
20260507122003 51 191 0.0 5.0 0.00 0.40 0.00 72 1008.6
20260507121504 51 0 0.0 0.0 0.00 0.40 0.00 79 1008.5
20260507121502 51 190 0.0 0.0 0.00 0.40 0.03 79 1009.0